Regional Weather Roundup
Issued by NWS

Home | Current Version | Previous Version | Text Only | Print | Product List | Glossary Off
Versions: 1 2 3 4 5 6 7 8 9 10 11 12 13 14 15 16 17 18 19 20 21 22 23 24 25 26 27 28 29 30 31 32 33 34 35 36 37 38 39 40 41 42 43 44 45 46 47 48 49 50

693
ASUS44 KJAN 260510
RWRMS

MISSISSIPPI HOURLY WEATHER ROUNDUP
NATIONAL WEATHER SERVICE JACKSON MS
1200 AM CDT THU MAR 26 2015

NOTE: "FAIR: INDICATES FEW OR NO CLOUDS BELOW 12,000 FEET WITH NO
SIGNIFICANT WEATHER AND/OR OBSTRUCTIONS TO VISIBILITY.

MSZ001>002-007>008-010>013-018>021-025>028-034>036-260600-
NORTHWEST MISSISSIPPI

CITY           SKY/WX    TMP DP  RH WIND       PRES   REMARKS
CLARKSDALE     FAIR      64  57  77 S7        29.90F
CLEVELAND      FAIR      62  59  93 S8        29.89F
GREENWOOD      CLOUDY    64  57  78 S8        29.93R
GREENVILLE     FAIR      60  54  80 S9        29.90F
OLIVE BRANCH   CLEAR     63  57  82 S8        29.89F
OXFORD         MOCLDY    63  54  72 SE5       29.94R
TUNICA         FAIR      61  55  82 S9        29.89F
$$

MSZ003>006-009-014>017-022>024-029>033-037>039-260600-
NORTHEAST MISSISSIPPI

CITY           SKY/WX    TMP DP  RH WIND       PRES   REMARKS
COLUMBUS AFB   MOCLDY    67  55  66 S6        29.95R
CORINTH        MOCLDY    61  54  77 CALM      29.93R
GOLDN TRIANGLE FAIR      64  55  72 S9        29.95R
STARKVILLE     FAIR      61  55  82 S3        29.95R
TUPELO         FAIR      64  54  69 SW5       29.93S
$$

MSZ040-058-260600-
CENTRAL MISSISSIPPI

CITY           SKY/WX    TMP DP  RH WIND       PRES   REMARKS
JACKSON INTL   FAIR      66  58  75 S9        29.94R
JACKSON HAWKNS FAIR      66  56  70 S10       29.95R
MERIDIAN KEY   FAIR      64  58  80 S8        29.96R
MERIDIAN NAS   MOCLDY    66  57  72 S6        29.94S
RAYMOND        FAIR      66  61  82 VRB3      29.95R
VICKSBURG      FAIR      68  55  63 S8        29.94R
$$

MSZ059>079-260600-
SOUTH MISSISSIPPI

CITY           SKY/WX    TMP DP  RH WIND       PRES   REMARKS
BROOKHAVEN       N/A     64  63  94 S9        29.96F
HATTIESBURG    FAIR      64  59  83 S6        29.98F
MCCOMB         FAIR      63  58  83 S9        29.95F
NATCHEZ        FAIR      66  55  68 S8        29.94R
PINE BELT      FAIR      61  55  82 S7        29.97F
$$

MSZ080>082-260600-
COASTAL MISSISSIPPI

CITY           SKY/WX    TMP DP  RH WIND       PRES   REMARKS
BILOXI         FAIR      69  65  87 S7        29.98F
PASCAGOULA     FAIR      61  61 100 SE3       29.99F FOG
GULFPORT       FAIR      68  63  84 S7        29.98F
$$



USA.gov is the U.S. government's official web portal to all federal, state and local government web resources and services.